[[{"header":{"parameterUnit":"m.s-1","parameterCategory":1,"la1":30.2992,"la2":30.254,"lo1":-89.0895,"lo2":-89.0443,"dy":0.0025,"dx":0.0025,"nx":19,"ny":19,"refTime":"2026-03-21T03:00:00:Z","depth":0,"parameterNumber":2,"parameterNumberName":"U-component_of_WINDS"},"data":[0,0,0,4.8091,4.8095,4.829,4.829,4.8547,4.855,0,0,0,0,0,0,0,0,0,0,0,4.8042,4.8044,4.809,4.8095,4.8289,4.829,4.8547,4.855,0,0,0,0,0,0,0,0,0,0,0,4.8041,4.8043,4.8046,4.8096,4.8289,4.829,4.8546,4.8396,0,0,0,0,0,0,0,0,0,0,4.8205,4.817,4.8043,4.8046,4.8097,4.8289,4.829,4.8388,4.8405,4.8464,0,4.8522,0,4.854,4.8568,4.8569,0,0,0,4.8088,4.8156,4.8201,4.8046,4.8099,4.8289,4.82,4.8398,4.8417,4.8486,4.8525,4.8534,4.8544,4.8569,4.8571,4.8938,4.894,0,0,4.8077,4.8081,4.8188,4.8213,4.8188,4.8194,4.8206,4.8409,4.845,4.8526,4.854,4.8548,4.8571,4.8573,4.8936,4.8939,0,0,0,4.8051,4.8074,4.8113,4.8203,4.8238,4.8199,4.8214,4.8441,4.8454,4.8543,4.8551,4.8573,4.8576,4.8934,4.8937,4.9041,0,0,0,4.8045,4.8059,4.8109,4.8113,4.8234,4.8343,4.8242,4.844,4.8463,4.855,4.8573,4.8579,4.8932,4.8936,4.9033,4.9088,0,0,0,4.8026,4.8056,4.8088,4.8113,4.8197,4.834,4.8364,4.8445,4.8469,4.8569,4.8579,4.893,4.8935,4.9026,4.9077,4.9183,0,0,0,4.8007,4.8179,4.809,4.8285,4.8195,4.8404,4.8362,4.8517,4.8616,4.8574,4.8932,4.8937,4.9024,4.907,4.9176,4.9271,4.9312,0,0,4.8226,4.8206,4.832,4.8245,4.8471,4.8374,4.8613,4.87,4.8705,4.8859,4.8868,4.9036,4.9076,4.9181,4.9546,4.9578,0,0,0,4.839,4.8472,4.8531,4.8625,4.8696,4.8759,4.8809,4.884,4.8971,4.8786,4.9104,4.9128,4.919,4.9234,4.9262,4.9312,4.8959,4.8959,4.8958,4.8704,4.8702,4.8889,4.8909,4.9001,4.9049,4.9122,4.9171,4.9143,4.9218,4.9263,4.9484,4.9537,4.9558,4.961,4.9316,4.9316,4.9316,4.9317,4.9021,4.9134,4.9091,4.9257,4.9252,4.939,4.9441,4.9416,4.954,4.9452,4.9505,4.9405,4.9594,4.9639,4.9324,4.9323,4.9322,4.9321,4.9321,4.9223,4.9276,4.9313,4.9446,4.9549,4.9563,4.9684,4.9676,4.9669,4.9722,4.9765,4.9764,4.9757,4.9744,4.9745,4.9746,4.9746,4.9747,4.9747,4.9417,4.9454,4.9559,4.9646,4.9703,4.9778,4.9825,4.988,4.9938,4.9922,4.9923,4.9883,4.9615,4.9545,4.9759,4.9757,4.9756,4.9755,4.9754,4.9733,4.966,4.9821,4.9879,4.9978,5.0077,5.0066,5.0177,5.0222,5.028,5.023,5.0034,5.0012,4.999,4.9932,5.0233,5.0233,5.0233,5.0233,4.9901,4.9889,5.005,5.0141,5.023,5.0235,5.0411,5.0448,5.0475,5.0501,5.0456,5.038,5.0358,5.0348,5.0318,5.0264,5.0643,5.0643,5.0644,5.0092,5.0089,5.0243,5.0269,5.0345,5.0409,5.0574,5.0676,5.0691,5.066,5.0519,5.0502,5.0378,5.0339,5.0302,5.0256,5.0156,0,0]},{"header":{"parameterUnit":"m.s-1","parameterCategory":1,"la1":30.2992,"la2":30.254,"lo1":-89.0895,"lo2":-89.0443,"dy":0.0025,"dx":0.0025,"nx":19,"ny":19,"refTime":"2026-03-21T03:00:00:Z","depth":0,"parameterNumber":3,"parameterNumberName":"V-component_of_WINDS"},"data":[0,0,0,2.8956,2.8959,2.9085,2.9085,2.9244,2.9246,0,0,0,0,0,0,0,0,0,0,0,2.892,2.8921,2.8956,2.8959,2.9085,2.9085,2.9244,2.9246,0,0,0,0,0,0,0,0,0,0,0,2.892,2.8921,2.8923,2.896,2.9085,2.9085,2.9244,2.9149,0,0,0,0,0,0,0,0,0,0,2.9027,2.8996,2.8921,2.8923,2.896,2.9084,2.9085,2.9144,2.9155,2.9187,0,2.9218,0,2.9235,2.9256,2.9257,0,0,0,2.8958,2.8987,2.902,2.8923,2.8962,2.9084,2.9028,2.915,2.9162,2.9201,2.9221,2.9226,2.9237,2.9257,2.9258,2.9453,2.9453,0,0,2.8951,2.8943,2.9012,2.9028,2.9011,2.9024,2.9032,2.9157,2.9177,2.9221,2.923,2.924,2.9258,2.926,2.9452,2.9453,0,0,0,2.8932,2.8939,2.8968,2.9021,2.9044,2.9027,2.9036,2.9172,2.9182,2.9232,2.9242,2.9259,2.9261,2.9451,2.9452,2.9493,0,0,0,2.8928,2.8928,2.8965,2.8962,2.9042,2.911,2.9048,2.9173,2.9188,2.9241,2.9259,2.9263,2.945,2.9451,2.949,2.9513,0,0,0,2.8912,2.8926,2.8944,2.8961,2.9015,2.9108,2.9126,2.9177,2.9194,2.9257,2.9263,2.9449,2.9451,2.9487,2.9509,2.9562,0,0,0,2.8892,2.898,2.8945,2.9046,2.9014,2.9133,2.9125,2.9214,2.9273,2.926,2.945,2.9452,2.9486,2.9506,2.9558,2.9605,2.9624,0,0,2.8998,2.8992,2.9052,2.9025,2.9148,2.9114,2.9243,2.9303,2.9316,2.9405,2.941,2.9491,2.9508,2.9561,2.9732,2.9747,0,0,0,2.9083,2.9126,2.916,2.9216,2.9265,2.9307,2.9349,2.9371,2.9447,2.9361,2.9524,2.9535,2.9566,2.9589,2.9601,2.9628,2.9462,2.9462,2.9462,2.9223,2.9234,2.9333,2.9358,2.9412,2.9452,2.9496,2.9532,2.9528,2.9566,2.9593,2.9696,2.9722,2.9731,2.9759,2.9618,2.9619,2.9619,2.9619,2.9379,2.9441,2.9431,2.9523,2.9533,2.9609,2.9651,2.9644,2.9715,2.9677,2.9705,2.9662,2.9748,2.9772,2.9622,2.9621,2.9621,2.9621,2.9621,2.9472,2.9503,2.9528,2.9608,2.9668,2.9689,2.9758,2.9764,2.977,2.9798,2.9825,2.9825,2.9824,2.981,2.9811,2.9811,2.9811,2.9812,2.9812,2.9558,2.9585,2.9643,2.97,2.9735,2.9782,2.9821,2.9855,2.9894,2.9893,2.9893,2.9883,2.9754,2.9721,2.9817,2.9816,2.9816,2.9815,2.9815,2.9712,2.9678,2.9767,2.9803,2.9868,2.9925,2.9931,2.9999,3.0028,3.0061,3.0044,2.9949,2.9942,2.9932,2.9905,3.0043,3.0043,3.0043,3.0043,2.979,2.9787,2.9879,2.9934,2.9989,3.0002,3.01,3.013,3.0155,3.0173,3.0153,3.0118,3.0107,3.0107,3.0093,3.0068,3.0244,3.0244,3.0245,2.9884,2.9887,2.997,2.9995,3.0046,3.0088,3.0179,3.0241,3.0262,3.0253,3.0186,3.0178,3.012,3.0101,3.0091,3.007,3.0024,0,0]}]]